Location: Santa Teresa Spring
(37.2333°N, 121.7000°W)
Time: 16:49:08
(UTC-07:00)

ISS - Visible Passes

Search period start: 30 September 2016 00:00
Search period end: 10 October 2016 00:00
Orbit: 400 x 410 km, 51.6° (Epoch: 01 October)

Date Brightness Start Highest point End Pass type
(mag) Time Alt. Az. Time Alt. Az. Time Alt. Az.
30 Sep -1.1 20:39:57 10° W 20:42:27 20° NNW 20:43:12 19° N visible
01 Oct -1.8 19:47:12 10° W 19:50:11 33° NNW 19:53:12 10° NNE visible
02 Oct -0.5 20:33:37 10° NW 20:35:01 12° NNW 20:36:13 11° N visible
03 Oct -0.8 19:40:21 10° WNW 19:42:37 17° NNW 19:44:54 10° NNE visible
05 Oct -0.5 19:34:16 10° NW 19:35:09 11° NNW 19:36:03 10° N visible
